Home   Weather   Dordrecht   Past weeks

Flag for Netherlands Past Weather in Dordrecht, Netherlands — Yesterday and Last 2 Weeks

Now
28 °F

Chilly.


Feels Like: 25 °F
Forecast: 20 / 34 °F
Wind: 3 mph from Southeast

Location: Gilze-Rijen

Current Time: Jan 21, 2017 at 7:00:54 pm

Latest Report: Jan 21, 2017 at 6:25 pm


Visibility: N/A

Pressure: 30.33 "Hg

Humidity: 86%

Dew Point: 25 °F

Location of DordrechtLocation

Past Weather in Dordrecht — Graph

°F

Dordrecht Temperature Yesterday

Maximum temperature yesterday: 41 °F (at 1:55 pm)
Minimum temperature yesterday: 21 °F (at 6:13 am)
Average temperature yesterday: 29 °F

High & Low Weather Summary for the Past Weeks

 TemperatureHumidityPressure
High50 °F (Jan 11, 12:43 pm)100% (Jan 7, 7:25 am)30.72 "Hg (Jan 7, 7:25 am)
Low19 °F (Jan 19, 6:25 am)45% (Jan 20, 1:25 pm)29.00 "Hg (Jan 12, 11:18 pm)
Average34 °F90%30.19 "Hg
* Reported Jan 6 5:25 pm — Jan 21 5:55 pm, Dordrecht, Weather by CustomWeather, © 2017

Note: Actual official high and low records may vary slightly from our data, if they occured in-between our weather recording intervals... More about our weather records

Advertising

Dordrecht Weather History for the Previous 24 Hours

Scroll right to see more
 ConditionsComfort  
Time TempWeatherWind HumidityBarometerVisibility
5:55 pm
Sat, Jan 21
30 °FChilly.2 mph80%30.33 "HgN/A
5:25 pm34 °FPassing clouds.2 mph70%30.33 "HgN/A
4:55 pm37 °FChilly.5 mph65%30.33 "HgN/A
4:25 pm39 °FChilly.6 mph61%30.33 "HgN/A
3:55 pm41 °FQuite cool.6 mph57%30.33 "HgN/A
3:25 pm41 °FQuite cool.6 mph57%30.33 "HgN/A
2:55 pm41 °FQuite cool.7 mph53%30.36 "HgN/A
2:25 pm41 °FQuite cool.8 mph57%30.36 "HgN/A
1:55 pm39 °FChilly.6 mph61%30.36 "HgN/A
1:25 pm39 °FOvercast.8 mph61%30.39 "HgN/A
12:55 pm39 °FPassing clouds.7 mph61%30.39 "HgN/A
12:25 pm37 °FPartly sunny.8 mph65%30.39 "HgN/A
11:55 am37 °FPassing clouds.7 mph70%30.42 "HgN/A
11:25 am36 °FChilly.6 mph75%30.42 "HgN/A
10:55 am34 °FScattered clouds.8 mph75%30.42 "HgN/A
10:25 am32 °FPartly sunny.8 mph80%30.42 "HgN/A
9:55 am30 °FChilly.8 mph86%30.42 "HgN/A
9:25 am28 °FIce fog.6 mph86%30.42 "Hg6 mi
8:55 am27 °FIce fog.5 mph93%30.42 "Hg5 mi
8:28 am27 °FIce fog.5 mph93%30.42 "Hg4 mi
7:55 am27 °FIce fog.6 mph93%30.42 "Hg5 mi
7:26 am28 °FIce fog.3 mph86%30.42 "Hg5 mi
7:13 am28 °FIce fog.6 mph93%30.42 "Hg4 mi
6:55 am30 °FIce fog.8 mph93%30.42 "Hg6 mi
6:25 am28 °FIce fog.5 mph93%30.42 "Hg5 mi
5:55 am28 °FIce fog.6 mph93%30.42 "Hg5 mi
5:25 am28 °FIce fog.6 mph93%30.45 "Hg5 mi
4:55 am28 °FHigh level clouds.6 mph86%30.45 "HgN/A
4:25 am28 °FPassing clouds.6 mph80%30.45 "HgN/A
3:55 am28 °FHigh level clouds.6 mph80%30.45 "HgN/A
3:25 am28 °FHigh level clouds.5 mph74%30.45 "HgN/A
2:55 am28 °FHigh level clouds.6 mph74%30.45 "HgN/A
2:25 am27 °FHigh level clouds.5 mph80%30.45 "HgN/A
1:55 am25 °FHigh level clouds.3 mph80%30.48 "HgN/A
1:25 am27 °FHigh level clouds.5 mph74%30.48 "HgN/A
12:55 am28 °FHigh level clouds.5 mph69%30.48 "HgN/A
12:25 am28 °FHigh level clouds.5 mph69%30.48 "HgN/A
11:55 pm
Fri, Jan 20
28 °FPassing clouds.5 mph69%30.48 "HgN/A
11:25 pm28 °FHigh level clouds.3 mph74%30.48 "HgN/A
10:55 pm30 °FHigh level clouds.6 mph64%30.51 "HgN/A
10:25 pm30 °FPassing clouds.5 mph69%30.51 "HgN/A
9:55 pm30 °FChilly.5 mph69%30.51 "HgN/A
9:25 pm32 °FChilly.6 mph64%30.51 "HgN/A
8:55 pm32 °FOvercast.5 mph64%30.51 "HgN/A
8:25 pm32 °FOvercast.6 mph69%30.51 "HgN/A
7:55 pm32 °FOvercast.6 mph69%30.51 "HgN/A
7:25 pm30 °FOvercast.7 mph75%30.51 "HgN/A
Weather by CustomWeather, © 2017

See weather overviewHow to use our weather pages